Weather History for KXLL - August, 2013

Change the Weather History Date:

Sunday, August 25, 2013

  Actual Average (KABE) Record (KABE)
Temperature  
Mean Temperature 64 °F 70 °F  
Max Temperature 78 °F 81 °F 95 °F (1948)
Min Temperature 51 °F 60 °F 42 °F (1927)
Degree Days  
Heating Degree Days 0 0  
Month to date heating degree days 0  
Since 1 June heating degree days 36  
Since 1 July heating degree days 3  
Cooling Degree Days 0 6  
Month to date cooling degree days 182  
Year to date cooling degree days 647  
Since 1 June cooling degree days 602  
Growing Degree Days 14 (Base 50)    
Moisture  
Dew Point 53 °F    
Average Humidity 65    
Maximum Humidity 94    
Minimum Humidity 32    
Precipitation  
Precipitation 0.00 in 0.11 in 1.30 in (1967)
Month to date precipitation 3.08  
Year to date precipitation 29.16  
Snow  
Snow 0.00 in 0.00 in 0.00 in (2002)
Month to date snowfall 0.0  
Since 1 June snowfall 0.0  
Since 1 July snowfall 0.0  
Snow Depth -    
Sea Level Pressure  
Sea Level Pressure 30.36 in    
Wind  
Wind Speed 2 mph (SW)    
Max Wind Speed 9 mph    
Max Gust Speed -    
Visibility 10 miles    
Events      
T = Trace of Precipitation, MM = Missing Value Source: NWS Daily Summary

Daily Weather History Graph

Daily Weather History Graph

Search for Another Location

Airport or City:

Trip Planner

Search our weather history database for the weather conditions in past years. The results will help you decide how hot, cold, wet, or windy it might be!

Date:

Astronomy

Aug. 25, 2013 Rise Set
Actual Time 6:22 AM EDT 7:44 PM EDT
Civil Twilight 5:54 AM EDT 8:13 PM EDT
Nautical Twilight 5:19 AM EDT 8:47 PM EDT
Astronomical Twilight 4:43 AM EDT 9:23 PM EDT
Moon 10:12 PM EDT 11:23 AM EDT
Length of Visible Light 14h 19m
Length of Day
13h 22m
Waning Gibbous, 76% of the Moon is Illuminated
Aug 25
Waning Gibbous
Aug 28
Last Quarter
Sep 5
New
Sep 12
First Quarter
Sep 19
Full

Hourly Weather History & Observations

Time (EDT) Temp. Dew Point Humidity Pressure Visibility Wind Dir Wind Speed Gust Speed Precip Events Conditions
12:15 AM 59.0 °F 53.6 °F 82% 30.37 in 10.0 mi Calm Calm - N/A   Clear
12:35 AM 57.2 °F 53.6 °F 88% 30.37 in 10.0 mi Calm Calm - N/A   Clear
12:55 AM 59.0 °F 53.6 °F 82% 30.37 in 10.0 mi Calm Calm - N/A   Clear
1:15 AM 55.4 °F 51.8 °F 88% 30.36 in 10.0 mi Calm Calm - N/A   Clear
1:35 AM 55.4 °F 51.8 °F 88% 30.36 in 10.0 mi Calm Calm - N/A   Clear
1:55 AM 55.4 °F 51.8 °F 88% 30.36 in 10.0 mi Calm Calm - N/A   Clear
2:15 AM 55.4 °F 53.6 °F 94% 30.36 in 10.0 mi Calm Calm - N/A   Clear
2:35 AM 55.4 °F 51.8 °F 88% 30.36 in 10.0 mi Calm Calm - N/A   Clear
2:55 AM 55.4 °F 51.8 °F 88% 30.36 in 10.0 mi Calm Calm - N/A   Clear
3:15 AM 55.4 °F 51.8 °F 88% 30.37 in 10.0 mi Calm Calm - N/A   Clear
3:35 AM 53.6 °F 51.8 °F 94% 30.37 in 10.0 mi Calm Calm - N/A   Clear
3:55 AM 53.6 °F 51.8 °F 94% 30.37 in 10.0 mi Calm Calm - N/A   Clear
4:15 AM 53.6 °F 51.8 °F 94% 30.37 in 10.0 mi Calm Calm - N/A   Clear
4:35 AM 53.6 °F 51.8 °F 94% 30.37 in 10.0 mi SW 3.5 mph - N/A   Clear
4:55 AM 53.6 °F 50.0 °F 88% 30.38 in 10.0 mi Calm Calm - N/A   Clear
5:15 AM 53.6 °F 50.0 °F 88% 30.39 in 10.0 mi Calm Calm - N/A   Clear
5:35 AM 53.6 °F 50.0 °F 88% 30.40 in 10.0 mi Calm Calm - N/A   Clear
5:55 AM 53.6 °F 50.0 °F 88% 30.40 in 10.0 mi Calm Calm - N/A   Clear
6:15 AM 53.6 °F 50.0 °F 88% 30.41 in 10.0 mi Calm Calm - N/A   Clear
6:35 AM 51.8 °F 50.0 °F 94% 30.41 in 10.0 mi Calm Calm - N/A   Clear
6:55 AM 53.6 °F 50.0 °F 88% 30.42 in 10.0 mi Calm Calm - N/A   Clear
7:15 AM 53.6 °F 50.0 °F 88% 30.43 in 10.0 mi Calm Calm - N/A   Clear
7:35 AM 55.4 °F 53.6 °F 94% 30.43 in 10.0 mi Calm Calm - N/A   Clear
7:55 AM 57.2 °F 53.6 °F 88% 30.43 in 10.0 mi Calm Calm - N/A   Clear
8:15 AM 59.0 °F 53.6 °F 82% 30.44 in 10.0 mi Calm Calm - N/A   Clear
8:35 AM 60.8 °F 55.4 °F 82% 30.43 in 10.0 mi Calm Calm - N/A   Clear
8:55 AM 62.6 °F 55.4 °F 77% 30.43 in 10.0 mi Calm Calm - N/A   Clear
9:15 AM 64.4 °F 57.2 °F 77% 30.43 in 10.0 mi WSW 3.5 mph - N/A   Clear
9:35 AM 64.4 °F 57.2 °F 77% 30.43 in 10.0 mi Calm Calm - N/A   Clear
9:55 AM 66.2 °F 59.0 °F 78% 30.43 in 10.0 mi SSW 3.5 mph - N/A   Clear
10:15 AM 69.8 °F 59.0 °F 68% 30.43 in 10.0 mi SSW 6.9 mph - N/A   Clear
10:35 AM 69.8 °F 59.0 °F 68% 30.42 in 10.0 mi WSW 3.5 mph - N/A   Clear
10:55 AM 71.6 °F 59.0 °F 64% 30.42 in 10.0 mi SW 5.8 mph - N/A   Clear
11:15 AM 73.4 °F 57.2 °F 57% 30.42 in 10.0 mi SW 5.8 mph - N/A   Clear
11:35 AM 73.4 °F 55.4 °F 53% 30.41 in 10.0 mi WSW 5.8 mph - N/A   Clear
11:55 AM 75.2 °F 55.4 °F 50% 30.40 in 10.0 mi SW 6.9 mph - N/A   Clear
12:15 PM 75.2 °F 50.0 °F 41% 30.40 in 10.0 mi West 3.5 mph - N/A   Clear
12:35 PM 77.0 °F 53.6 °F 44% 30.39 in 10.0 mi WSW 3.5 mph - N/A   Clear
12:55 PM 75.2 °F 53.6 °F 47% 30.38 in 10.0 mi WNW 3.5 mph - N/A   Clear
1:15 PM 77.0 °F 51.8 °F 41% 30.38 in 10.0 mi Calm Calm - N/A   Scattered Clouds
1:35 PM 78.8 °F 51.8 °F 39% 30.38 in 10.0 mi SW 4.6 mph - N/A   Clear
1:55 PM 78.8 °F 48.2 °F 34% 30.37 in 10.0 mi South 5.8 mph - N/A   Clear
2:15 PM 78.8 °F 46.4 °F 32% 30.36 in 10.0 mi SW 6.9 mph - N/A   Clear
2:35 PM 78.8 °F 50.0 °F 36% 30.35 in 10.0 mi South 6.9 mph - N/A   Clear
2:55 PM 78.8 °F 51.8 °F 39% 30.35 in 10.0 mi SSW 5.8 mph - N/A   Clear
3:15 PM 78.8 °F 50.0 °F 36% 30.35 in 10.0 mi SW 6.9 mph - N/A   Clear
3:35 PM 78.8 °F 48.2 °F 34% 30.34 in 10.0 mi South 5.8 mph - N/A   Clear
3:55 PM 78.8 °F 50.0 °F 36% 30.34 in 10.0 mi SW 5.8 mph - N/A   Clear
4:15 PM 78.8 °F 50.0 °F 36% 30.33 in 10.0 mi SSW 8.1 mph - N/A   Clear
4:35 PM 78.8 °F 50.0 °F 36% 30.32 in 10.0 mi SSW 5.8 mph - N/A   Clear
4:55 PM 78.8 °F 50.0 °F 36% 30.32 in 10.0 mi SSW 4.6 mph - N/A   Clear
5:15 PM 78.8 °F 50.0 °F 36% 30.31 in 10.0 mi SW 9.2 mph - N/A   Clear
5:35 PM 78.8 °F 51.8 °F 39% 30.30 in 10.0 mi SSW 6.9 mph - N/A   Clear
5:55 PM 78.8 °F 51.8 °F 39% 30.29 in 10.0 mi SW 9.2 mph - N/A   Clear
6:15 PM 77.0 °F 51.8 °F 41% 30.29 in 10.0 mi SSW 6.9 mph - N/A   Clear
6:35 PM 77.0 °F 51.8 °F 41% 30.28 in 10.0 mi SW 4.6 mph - N/A   Clear
6:55 PM 73.4 °F 53.6 °F 50% 30.28 in 10.0 mi SSW 6.9 mph - N/A   Clear
7:15 PM 73.4 °F 53.6 °F 50% 30.27 in 10.0 mi SSW 5.8 mph - N/A   Clear
7:35 PM 73.4 °F 53.6 °F 50% 30.27 in 10.0 mi South 3.5 mph - N/A   Clear
7:55 PM 71.6 °F 53.6 °F 53% 30.28 in 10.0 mi SSW 4.6 mph - N/A   Clear
8:15 PM 69.8 °F 53.6 °F 56% 30.28 in 10.0 mi SSW 3.5 mph - N/A   Clear
8:35 PM 69.8 °F 53.6 °F 56% 30.27 in 10.0 mi SSW 4.6 mph - N/A   Clear
8:55 PM 69.8 °F 53.6 °F 56% 30.27 in 10.0 mi SSW 5.8 mph - N/A   Clear
9:15 PM 69.8 °F 53.6 °F 56% 30.27 in 10.0 mi SSW 9.2 mph - N/A   Clear
9:35 PM 69.8 °F 53.6 °F 56% 30.28 in 10.0 mi SSW 6.9 mph - N/A   Clear
9:55 PM 68.0 °F 53.6 °F 60% 30.28 in 10.0 mi SW 5.8 mph - N/A   Clear
10:15 PM 68.0 °F 53.6 °F 60% 30.28 in 10.0 mi SW 9.2 mph - N/A   Clear
10:35 PM 68.0 °F 53.6 °F 60% 30.29 in 10.0 mi SW 3.5 mph - N/A   Clear
10:55 PM 68.0 °F 53.6 °F 60% 30.28 in 10.0 mi SW 4.6 mph - N/A   Clear
11:15 PM 68.0 °F 53.6 °F 60% 30.28 in 10.0 mi Calm Calm - N/A   Clear
11:35 PM 66.2 °F 53.6 °F 64% 30.28 in 10.0 mi Calm Calm - N/A   Clear
11:55 PM 66.2 °F 53.6 °F 64% 30.27 in 10.0 mi SW 3.5 mph - N/A   Clear